Buffalo, SD

2:09 PM MDT on March 30, 2017 (GMT -0600)
Buffalo

Weather History for K2WX - September, 2012

Change the Weather History Date:

Thursday, September 27, 2012

  Actual Average Record
Temperature  
Mean Temperature 64 °F 53 °F  
Max Temperature 80 °F 66 °F 89 °F (2011)
Min Temperature 48 °F 39 °F 32 °F (1999)
Degree Days  
Heating Degree Days 1 12  
Month to date heating degree days 124 198  
Since 1 July heating degree days 159 250  
Cooling Degree Days 0 0  
Month to date cooling degree days 53 40  
Year to date cooling degree days 850 511  
Growing Degree Days 14 (Base 50)    
Moisture  
Dew Point 38 °F    
Average Humidity 49    
Maximum Humidity 72    
Minimum Humidity 25    
Precipitation  
Precipitation 0.00 in 0.01 in 0.25 in (2005)
Month to date precipitation 0.01 1.05  
Year to date precipitation 7.59 13.19  
Sea Level Pressure  
Sea Level Pressure 30.02 in    
Wind  
Wind Speed 8 mph (SE)    
Max Wind Speed 22 mph    
Max Gust Speed 28 mph    
T = Trace of Precipitation, MM = Missing Value Source: NWS Daily Summary

Daily Weather History Graph

Daily Weather History Graph

Search for Another Location

Airport or City:

Trip Planner

Search our weather history database for the weather conditions in past years. The results will help you decide how hot, cold, wet, or windy it might be!

Date:

Astronomy

Sep. 27, 2012 Rise Set
Actual Time 6:47 AM MDT 6:40 PM MDT
Civil Twilight 6:18 AM MDT 7:10 PM MDT
Nautical Twilight 5:43 AM MDT 7:44 PM MDT
Astronomical Twilight 5:08 AM MDT 8:19 PM MDT
Moon 5:17 PM MDT (9/27) 4:13 AM MDT (9/27)
Length of Visible Light 12h 52m
Length of Day
11h 52m
Waxing Gibbous, 94% of the Moon is Illuminated
Sep 27
Waxing Gibbous
Sep 29
Full
Oct 8
Last Quarter
Oct 15
New
Oct 21
First Quarter

Hourly Weather History & Observations

Time (MDT) Temp. Dew Point Humidity Pressure Visibility Wind Dir Wind Speed Gust Speed Precip Events Conditions
12:56 AM 59.0 °F 33.1 °F 38% 29.97 in - South 6.9 mph - N/A   Unknown
1:56 AM 57.9 °F 32.0 °F 37% 29.98 in - South 10.4 mph - N/A   Unknown
2:56 AM 54.0 °F 32.0 °F 43% 29.99 in - South 5.8 mph - N/A   Unknown
3:56 AM 51.1 °F 32.0 °F 48% 30.00 in - SW 5.8 mph - N/A   Unknown
4:56 AM 54.0 °F 30.9 °F 41% 29.99 in - SSW 4.6 mph - N/A   Unknown
5:56 AM 50.0 °F 32.0 °F 50% 30.01 in - South 4.6 mph - N/A   Unknown
6:56 AM 51.1 °F 32.0 °F 48% 30.03 in - Calm Calm - N/A   Unknown
7:56 AM 57.0 °F 34.0 °F 42% 30.04 in - NW 8.1 mph - N/A   Unknown
8:56 AM 64.9 °F 37.0 °F 36% 30.04 in - Variable 3.5 mph - N/A   Unknown
9:56 AM 64.9 °F 36.0 °F 34% 30.04 in - Calm Calm - N/A   Unknown
10:56 AM 72.0 °F 39.0 °F 30% 30.03 in - Calm Calm - N/A   Unknown
11:56 AM 75.0 °F 39.0 °F 27% 30.02 in - Variable 4.6 mph - N/A   Unknown
12:56 PM 77.0 °F 39.0 °F 25% 30.01 in - ESE 11.5 mph 16.1 mph N/A   Unknown
1:56 PM 79.0 °F 39.0 °F 24% 29.99 in - ESE 15.0 mph - N/A   Unknown
2:56 PM 79.0 °F 39.0 °F 24% 29.99 in - ESE 13.8 mph 19.6 mph N/A   Unknown
3:56 PM 78.1 °F 39.0 °F 25% 29.99 in - SE 17.3 mph 25.3 mph N/A   Unknown
4:56 PM 75.9 °F 37.9 °F 25% 29.99 in - ESE 12.7 mph - N/A   Unknown
5:56 PM 73.9 °F 37.9 °F 27% 30.01 in - SE 11.5 mph - N/A   Unknown
6:56 PM 66.9 °F 42.1 °F 40% 30.04 in - East 11.5 mph - N/A   Unknown
7:56 PM 63.0 °F 46.9 °F 56% 30.06 in - North 18.4 mph - N/A   Unknown
8:56 PM 60.1 °F 48.0 °F 64% 30.07 in - NNW 10.4 mph - N/A   Unknown
9:56 PM 60.1 °F 48.9 °F 67% 30.06 in - NNE 10.4 mph - N/A   Unknown
10:56 PM 61.0 °F 48.0 °F 62% 30.04 in - NNE 4.6 mph - N/A   Unknown
11:56 PM 57.0 °F 48.0 °F 72% 30.03 in - East 6.9 mph - N/A   Unknown